#timestamp,LO_Frequency,Hit,StdDev 
1547895615.4,286047002.1,N
1547895635.3,286047004.4,Y
1547895655.1,286047005.7,P
1547895675.8,286047005.2,N
1547895695.7,286047005.3,N
1547895715.5,286047004.2,N
1547895735.4,286047002.7,N
1547895755.2,286047000.1,N
1547895775.0,286047001.9,N
1547895775.9,286047001.9,N
1547895795.8,286047001.6,N
1547895815.6,286047002.3,N
1547895835.4,286047003.3,N
1547895855.3,286047002.2,N
1547895875.1,286047002.0,N
1547895895.9,286047002.7,N
1547895915.7,286047000.0,N
1547895935.5,286046998.1,N
1547895955.4,286046999.1,N
1547895975.2,286046998.5,N
1547895995.0,286047000.5,N
1547896015.3,286046998.2,N
1547896035.1,286046998.7,N
1547896036.0,286046998.7,N
1547896055.8,286047000.5,N
1547896075.7,286046998.8,N
1547896095.5,286046998.9,N
1547896115.4,286046998.2,N
1547896135.2,286047000.9,N
1547896155.0,286047002.4,N
1547896155.9,286047002.4,N
1547896175.8,286047001.7,N
1547896195.7,286047001.8,N
1547896215.5,286047004.2,N
1547896235.3,286047004.2,N
1547896255.2,286047003.3,N
1547896275.0,286047003.1,N
1547896306.0,286047003.3,E
1547896315.9,286047002.7,N
1547896335.2,286046999.5,P
1547896355.9,286046999.0,N
1547896375.7,286046998.2,N
1547896395.8,286046998.4,N
1547896415.6,286046999.3,N
1547896435.4,286046996.8,N
1547896455.3,286046995.7,N
1547896475.1,286046993.6,Y
1547896495.8,286046998.0,P
1547896515.7,286046998.8,P
1547896535.7,286046998.6,P
1547896555.5,286046998.6,Y
1547896575.4,286047000.2,P
1547896595.2,286047000.5,N
1547896615.1,286046998.5,N
1547896616.0,286046998.5,N
1547896635.8,286046999.8,N
1547896655.6,286047001.6,N
1547896675.5,286046999.7,N
1547896695.3,286046998.4,N
1547896715.2,286047000.9,N
1547896735.9,286046999.9,N
1547896755.7,286046998.1,N
1547896775.6,286047000.5,N
1547896795.4,286046998.1,N
1547896815.2,286046998.8,N
1547896835.1,286046998.9,N
1547896836.0,286046998.9,N
1547896855.8,286046999.4,N
1547896875.7,286046999.5,N
1547896895.5,286046997.6,N
1547896915.3,286046997.5,N
1547896935.2,286046999.2,N
1547896955.0,286046998.6,N
1547896955.9,286046998.6,N
1547896975.7,286047001.1,N
1547896995.6,286046998.2,N
1547897015.4,286046999.8,N
1547897035.3,286047001.2,N
1547897055.1,286046999.4,N
1547897056.0,286046999.4,N
1547897075.8,286047000.4,N
1547897095.7,286046998.1,N
1547897115.5,286047000.5,N
1547897135.4,286047000.2,N
1547897155.2,286047001.1,N
1547897175.0,286047000.7,N
1547897175.9,286047000.7,N
1547897195.8,286046998.4,N
1547897215.6,286046998.3,N
1547897235.5,286046996.5,Y
1547897255.3,286046998.1,P
1547897275.1,286047000.4,N
1547897295.9,286047002.0,N
1547897315.7,286047004.3,N
1547897335.5,286047001.7,N
1547897355.4,286047003.9,N
1547897375.2,286047005.8,N
1547897395.1,286047003.0,N
1547897396.0,286047003.0,N
1547897415.8,286047005.9,N
1547897435.6,286047003.6,N
1547897455.5,286047003.5,N
1547897475.3,286047003.7,N
1547897495.1,286047001.6,N
1547897515.9,286047004.4,N
1547897535.7,286047002.5,N
1547897555.5,286046999.8,N
1547897575.4,286047004.3,N
1547897595.2,286047002.9,N
1547897615.1,286047003.5,N
1547897616.0,286047003.5,N
1547897635.8,286047003.6,N
1547897655.6,286047001.3,N
1547897675.5,286047000.3,N
1547897695.3,286047002.7,N
1547897715.1,286047000.0,N
1547897735.9,286047002.7,N
1547897755.7,286047004.4,N
1547897775.6,286047004.1,N
1547897795.4,286047003.8,N
1547897815.2,286047003.2,N
1547897835.1,286047003.7,N
1547897836.0,286047003.7,N
1547897855.8,286047004.3,N
1547897875.6,286047002.0,N
1547897895.5,286047002.6,N
1547897915.3,286047001.4,N
1547897935.2,286047002.3,N
1547897955.9,286047002.0,N
1547897975.7,286047004.2,Y
1547897995.6,286047000.8,P
1547898015.4,286047002.8,N
1547898035.2,286047002.7,N
1547898055.1,286047002.4,N
1547898056.0,286047002.4,Y
1547898075.8,286046998.8,P
1547898095.7,286046999.0,N
1547898115.5,286046998.5,N
1547898135.3,286046998.4,N
1547898155.1,286046998.2,N
1547898156.0,286046998.2,N
1547898175.8,286047000.5,N
1547898195.7,286047000.4,N
1547898215.5,286046998.5,N
1547898235.3,286046998.5,N
1547898255.2,286046998.6,N
1547898275.0,286046999.0,N
1547898275.9,286046999.0,N
1547898295.7,286046998.8,N
1547898315.6,286046998.8,N
1547898335.4,286046999.1,N
1547898355.3,286046997.5,N
1547898375.1,286046995.1,Y
1547898376.0,286046995.1,P
1547898395.8,286046997.7,N
1547898415.7,286046994.9,P
1547898435.5,286046996.1,N
1547898455.3,286046996.7,N
1547898475.2,286046997.0,N
1547898495.0,286046998.1,N
1547898495.9,286046998.1,N
1547898515.8,286047001.0,N
1547898535.6,286047001.2,N
1547898555.4,286047001.0,N
1547898575.3,286046998.6,N
1547898595.1,286046998.5,N
1547898615.9,286046999.7,N
1547898635.7,286047000.1,N
1547898655.5,286047000.2,N
1547898675.4,286046998.3,N
1547898695.2,286046998.9,N
1547898715.1,286047000.5,N
1547898716.0,286047000.5,N
1547898735.8,286047000.2,N
1547898755.6,286047000.6,N
1547898775.5,286047000.6,N
1547898795.3,286047000.6,N
1547898815.1,286046998.7,N
1547898835.9,286046996.6,N
1547898855.7,286046997.2,N
1547898875.6,286046996.7,N
1547898895.4,286046999.0,N
1547898915.2,286046999.3,N
1547898935.1,286046996.9,N
1547898936.0,286046996.9,N
1547898955.8,286046997.0,N
1547898975.7,286046999.6,N
1547898995.5,286047000.2,N
1547899015.3,286047001.7,N
1547899035.2,286047004.0,N
1547899055.0,286047005.8,Y
1547899055.9,286047005.8,P
1547899075.8,286047001.5,N
1547899095.6,286047002.1,N
1547899115.4,286047002.8,N
1547899135.3,286047000.5,N
1547899155.5,286046999.7,N
1547899175.3,286047001.1,N
1547899195.1,286046998.1,N
